Location: Jackson Park
(37.2862°N, 79.9123°W)
Time: 11:28:31
(UTC+00:00)

Altair - All Passes

Search period start: 15 May 2026 00:00
Search period end: 25 May 2026 00:00
Orbit: 1501 x 1682 km, 47.2° (Epoch: 14 May)

Date Brightness Start Highest point End Pass type
(mag) Time Alt. Az. Time Alt. Az. Time Alt. Az.
15 May - 08:43:27 10° SSW 08:52:34 46° SE 09:01:57 10° ENE visible
15 May - 10:47:10 10° WSW 10:57:06 73° NNW 11:07:19 10° ENE daylight
15 May - 12:53:38 10° WNW 13:03:20 48° N 13:13:05 10° ENE daylight
15 May - 14:59:41 10° WNW 15:09:47 62° NNE 15:19:46 10° ESE daylight
15 May - 17:04:54 10° WNW 17:14:48 60° SW 17:24:28 10° SE daylight
15 May - 19:13:03 10° W 19:18:04 15° WSW 19:23:01 10° SSW daylight
16 May - 08:18:30 10° SSW 08:27:23 42° SE 08:36:33 10° ENE visible
16 May - 10:21:52 10° WSW 10:31:47 76° NNW 10:42:00 10° ENE daylight
16 May - 12:28:14 10° WNW 12:37:54 49° N 12:47:42 10° ENE daylight
16 May - 14:34:22 10° WNW 14:44:25 60° NNE 14:54:23 10° E daylight
16 May - 16:39:34 10° WNW 16:49:35 65° SW 16:59:22 10° SE daylight
16 May - 18:47:05 10° W 18:52:57 17° WSW 18:58:45 10° SSW daylight
17 May - 07:53:34 10° SSW 08:02:13 38° SE 08:11:07 10° ENE visible
17 May - 09:56:35 10° WSW 10:06:29 80° NNW 10:16:42 10° ENE daylight
17 May - 12:02:50 10° W 12:12:30 49° N 12:22:18 10° ENE daylight
17 May - 14:09:02 10° WNW 14:19:03 58° NNE 14:28:59 10° E daylight
17 May - 16:14:15 10° WNW 16:24:20 70° SW 16:34:13 10° SE daylight
17 May - 18:21:18 10° W 18:27:51 20° SW 18:34:19 10° SSW daylight
18 May - 07:28:41 10° S 07:37:04 34° SE 07:45:41 10° ENE visible
18 May - 09:31:20 10° WSW 09:41:11 84° NNW 09:51:23 10° ENE visible
18 May - 11:37:26 10° W 11:47:05 50° N 11:56:55 10° ENE daylight
18 May - 13:43:43 10° WNW 13:53:40 56° NNE 14:03:35 10° E daylight
18 May - 15:48:56 10° WNW 15:59:05 75° SW 16:09:03 10° SE daylight
18 May - 17:55:35 10° W 18:02:43 22° SW 18:09:45 10° S daylight
19 May - 07:03:51 10° S 07:11:55 31° SE 07:20:13 10° ENE visible
19 May - 09:06:05 10° SW 09:15:54 89° NNW 09:26:05 10° ENE visible
19 May - 11:12:02 10° W 11:21:41 51° N 11:31:32 10° ENE daylight
19 May - 13:18:23 10° WNW 13:28:17 54° NNE 13:38:10 10° E daylight
19 May - 15:23:38 10° WNW 15:33:49 80° SW 15:43:51 10° SE daylight
19 May - 17:29:58 10° WNW 17:37:35 25° SW 17:45:06 10° S daylight
20 May - 06:39:04 10° S 06:46:47 28° SE 06:54:43 10° ENE visible
20 May - 08:40:51 10° SW 08:50:37 86° SSE 09:00:46 10° ENE visible
20 May - 10:46:39 10° W 10:56:17 52° NNW 11:06:11 10° ENE daylight
20 May - 12:53:03 10° WNW 13:02:53 53° NNE 13:12:46 10° E daylight
20 May - 14:58:20 10° WNW 15:08:33 84° SW 15:18:38 10° SE daylight
20 May - 17:04:24 10° WNW 17:12:27 28° SW 17:20:22 10° S daylight
21 May - 06:14:20 10° S 06:21:39 25° SE 06:29:09 10° ENE visible
21 May - 08:15:39 10° SW 08:25:21 81° SE 08:35:27 10° ENE visible
21 May - 10:21:16 10° W 10:30:54 53° NNW 10:40:49 10° ENE daylight
21 May - 12:27:42 10° WNW 12:37:29 51° NNE 12:47:20 10° E daylight
21 May - 14:33:02 10° WNW 14:43:16 89° SSW 14:53:23 10° SE daylight
21 May - 16:38:54 10° WNW 16:47:17 31° SW 16:55:34 10° S daylight
22 May - 05:49:41 10° S 05:56:32 22° SE 06:03:33 10° E visible
22 May - 07:50:29 10° SW 08:00:07 76° SE 08:10:08 10° ENE visible
22 May - 09:55:53 10° W 10:05:32 55° NNW 10:15:27 10° ENE daylight
22 May - 12:02:21 10° WNW 12:12:05 50° N 12:21:55 10° E daylight
22 May - 14:07:44 10° WNW 14:17:58 86° NNE 14:28:07 10° ESE daylight
22 May - 16:13:26 10° WNW 16:22:07 34° SW 16:30:44 10° S daylight
23 May - 05:25:08 10° SSE 05:31:26 20° SE 05:37:52 10° E visible
23 May - 07:25:20 10° SW 07:34:53 71° SE 07:44:49 10° ENE visible
23 May - 09:30:31 10° W 09:40:09 57° NNW 09:50:06 10° ENE visible
23 May - 11:37:00 10° WNW 11:46:41 49° N 11:56:29 10° E daylight
23 May - 13:42:27 10° WNW 13:52:40 82° NNE 14:02:50 10° ESE daylight
23 May - 15:47:59 10° WNW 15:56:57 37° SW 16:05:50 10° SSE daylight
24 May - 05:00:41 10° SSE 05:06:20 17° ESE 05:12:06 10° E visible
24 May - 07:00:12 10° SW 07:09:40 66° SE 07:19:30 10° ENE visible
24 May - 09:05:09 10° W 09:14:47 59° NNW 09:24:45 10° ENE visible
24 May - 11:11:40 10° WNW 11:21:16 49° N 11:31:03 10° E daylight
24 May - 13:17:10 10° WNW 13:27:21 78° NNE 13:37:32 10° ESE daylight
24 May - 15:22:34 10° WNW 15:31:47 41° SW 15:40:53 10° SSE daylight
